Location: Ravensburg
(47.7866°N, 9.6124°E)
Time: 08:59:28
(UTC+02:00)

YUBILEINY - Pass Details

Date: 19 March 2026
Orbit: 1477 x 1509 km, 82.5° (Epoch: 17 April)

Event Time Altitude Azimuth Distance (km) Brightness Sun altitude
Rises 02:32:46 0° 351° (N) 4,621 ? -35.8°
Reaches altitude 10° 02:35:47 10° 356° (N) 3,634 ? -35.5°
Maximum altitude 02:44:20 56° 74° (ENE) 1,722 ? -34.5°
Enters shadow 02:50:58 18° 147° (SSE) 3,029 ? -33.8°
